Location: North Evanston
(42.0634°N, 87.6976°W)
Time: 21:04:59
(UTC+00:00)

Transit 2A - Pass Details

Date: 19 May 2026
Orbit: 595 x 948 km, 66.7° (Epoch: 9 June)

Event Time Altitude Azimuth Distance (km) Brightness Sun altitude
Rises 06:40:35 0° 316° (NW) 3,090 9.6 -26.9°
Reaches altitude 10° 06:43:30 10° 300° (WNW) 2,105 8.4 -26.8°
Enters shadow 06:44:36 14° 289° (WNW) 1,805 8.0 -26.7°
Maximum altitude 06:46:55 20° 253° (WSW) 1,478 - -26.6°
Drops below altitude 10° 06:50:10 10° 206° (SSW) 1,980 - -26.5°
Sets 06:52:49 0° 189° (S) 2,848 - -26.3°
